Station 46086 (LLNR 81) - SAN CLEMENTE BASIN - 27NM SE Of San Clemente Is, CA Image indicating link to RSS feed of recent meteorological observations for station 46086


Conditions at 46086 as of
(7:10 pm PDT on 07/17/2024)
0210 GMT on 07/18/2024:
     

Click on the graph icon in the table below to see a time series plot of the last five days of that observation.

5-day plot - Wind Direction Wind Direction (WDIR): W ( 280 deg true )
5-day plot - Wind Speed Wind Speed (WSPD): 7.8 kts
5-day plot - Wind Gust Wind Gust (GST): 9.7 kts
5-day plot - Wave Height Wave Height (WVHT): 4.9 ft
5-day plot - Average Wave Period Average Period (APD): 6.8 sec
5-day plot - Mean Wave Direction Mean Wave Direction (MWD): SW ( 223 deg true )
5-day plot - Atmospheric Pressure Atmospheric Pressure (PRES):29.90 in
5-day plot - Air Temperature Air Temperature (ATMP): 63.7 °F
5-day plot - Water Temperature Water Temperature (WTMP): 66.4 °F
5-day plot - Dew Point Dew Point (DEWP): 60.6 °F
5-day plot - Wind Speed at 10 Meters Wind Speed at 10 meters (WSPD10M): 7.8 kts
5-day plot - Wind Speed at 20 Meters Wind Speed at 20 meters (WSPD20M): 9.7 kts
5-day plot -  Wind Speed, Wind Gust and Atmospheric Pressure Combined plot of Wind Speed, Gust, and Air Pressure
Supplemental Measurements
Highest 1-minute Wind Speed
Time (PDT)5-day plot - 1-Minute Wind Speed WSPD 5-day plot - 1-Minute Wind Direction WDIR
7:10 pm 9.7 kts-
Previous observations
TIME
(PDT)
5-day plot - Wind Direction
WDIR
 
5-day plot - Wind Speed
WSPD
kts
5-day plot - Wind Gust
GST
kts
5-day plot - Wave Height
WVHT
ft
5-day plot - Dominant Wave Period
DPD
sec
5-day plot - Average Wave Period
APD
sec
5-day plot - Mean Wave Direction
MWD
 
5-day plot - Atmospheric Pressure
PRES
in
5-day plot - Pressure Tendency
PTDY
in
5-day plot - Air Temperature
ATMP
°F
5-day plot - Water Temperature
WTMP
°F
5-day plot - Dew Point
DEWP
°F
5-day plot - Salinity
SAL
psu
5-day plot - Visibility
VIS
nmi
5-day plot - Tide (above MLLW)
TIDE
ft
2024-07-17 07:00 pmWNW 7.8 11.7----29.91+0.00 63.7 66.4 60.6---
2024-07-17 06:50 pmWNW 7.8 11.7 4.9 176.7SSW29.90- 63.7 66.4 60.8---
2024-07-17 06:40 pmWNW 9.7 13.6 4.9-6.7SSW29.90- 63.9 66.4 61.0---
2024-07-17 06:30 pmWNW 9.7 11.7----29.90- 63.9 66.4 61.0---
2024-07-17 06:20 pm W 11.7 13.6 4.6 166.2SSW29.89- 64.0 66.4 61.0---
2024-07-17 06:10 pmWNW 9.7 13.6 4.6-6.2SSW29.89- 64.0 66.4 61.0---
2024-07-17 06:00 pmWNW 9.7 11.7----29.89-0.03 64.4 66.4 61.3---
2024-07-17 05:50 pmWNW 9.7 13.6 4.3 175.9SSW29.89- 64.4 66.4 61.2---
2024-07-17 05:40 pmWNW 9.7 11.7----29.89- 64.2 66.4 61.0---
2024-07-17 05:30 pmWNW 9.7 11.7----29.89- 64.0 66.4 60.6---
2024-07-17 05:20 pmWNW 11.7 13.6 4.3 175.8WSW29.89- 64.0 66.2 60.6---
2024-07-17 05:10 pm W 11.7 13.6 4.3-5.8WSW29.89- 63.9 66.2 60.3---
2024-07-17 05:00 pm W 11.7 13.6----29.89-0.04 63.9 66.2 60.1---
2024-07-17 04:50 pm W 11.7 15.5 4.6 176.2 SW29.90- 63.9 66.2 59.9---
2024-07-17 04:40 pm W 11.7 13.6----29.90- 63.9 66.2 59.9---
2024-07-17 04:30 pm W 11.7 13.6----29.90- 63.9 66.2 59.9---
2024-07-17 04:20 pm W 11.7 15.5 4.9 176.4SSW29.90- 63.7 66.0 59.7---
2024-07-17 04:10 pmWNW 11.7 15.5 4.9-6.4SSW29.91- 63.7 66.2 59.7---
2024-07-17 04:00 pmWNW 11.7 13.6----29.91-0.05 63.9 66.2 59.9---
2024-07-17 03:50 pmWNW 11.7 13.6 5.2 176.5 SW29.91- 63.7 66.2 59.7---
2024-07-17 03:40 pmWNW 11.7 13.6 5.2-6.5 SW29.91- 63.7 66.0 59.7---
2024-07-17 03:30 pmWNW 11.7 13.6----29.92- 63.9 66.0 59.9---
2024-07-17 03:20 pmWNW 11.7 15.5 4.6 165.7SSW29.93- 63.7 66.2 59.7---
2024-07-17 03:10 pmWNW 11.7 15.5 4.6-5.7SSW29.93- 63.7 66.0 59.9---
2024-07-17 03:00 pmWNW 13.6 15.5----29.92-0.05 63.7 66.0 59.9---
2024-07-17 02:50 pmWNW 13.6 17.5 4.9 175.5 S29.92- 63.7 66.0 59.7---
2024-07-17 02:40 pmWNW 15.5 17.5----29.92- 63.5 66.0 59.5---
2024-07-17 02:30 pmWNW 15.5 17.5----29.93- 63.7 66.0 59.9---
2024-07-17 02:20 pmWNW 15.5 19.4 4.6 175.7SSW29.93- 63.5 66.0 59.7---
2024-07-17 02:10 pmWNW 15.5 19.4 4.6-5.7SSW29.93- 63.5 66.0 59.5---
2024-07-17 02:00 pmWNW 15.5 19.4----29.93-0.04 63.5 66.0 59.5---
2024-07-17 01:50 pmWNW 15.5 19.4 5.2 176.4SSW29.93- 63.7 66.0 59.7---
2024-07-17 01:40 pmWNW 13.6 17.5 5.2-6.4SSW29.94- 63.7 66.0 59.7---
2024-07-17 01:30 pmWNW 13.6 15.5----29.95- 63.9 66.0 59.7---
2024-07-17 01:20 pmWNW 13.6 15.5 4.6 176.3 SW29.95- 63.7 66.0 59.4---
2024-07-17 01:10 pmWNW 13.6 15.5 4.6-6.3 SW29.96- 63.7 66.0 59.4---
2024-07-17 01:00 pmWNW 13.6 15.5----29.96-0.02 63.7 66.0 59.4---
2024-07-17 12:50 pmWNW 13.6 17.5 4.6 176.4 SW29.96- 63.7 66.0 59.4---
2024-07-17 12:40 pmWNW 13.6 15.5----29.96- 63.5 66.0 59.2---
2024-07-17 12:30 pmWNW 13.6 15.5----29.97- 63.7 66.0 59.5---
2024-07-17 12:20 pmWNW 13.6 17.5 4.9 176.5 SW29.97- 63.7 66.0 59.4---
2024-07-17 12:10 pmWNW 13.6 17.5 4.9-6.5 SW29.96- 63.5 65.8 59.4---
2024-07-17 12:00 pmWNW 13.6 15.5----29.97-0.01 63.5 65.8 59.2---
2024-07-17 11:50 amWNW 11.7 13.6 5.2 176.8SSW29.98- 63.3 65.8 59.2---
2024-07-17 11:40 amWNW 11.7 15.5 5.2-6.8SSW29.98- 63.5 65.8 59.4---
2024-07-17 11:30 amWNW 13.6 15.5----29.97- 63.5 65.8 59.4---
2024-07-17 11:20 amWNW 13.6 17.5 4.9 176.2 SW29.98- 63.5 65.8 59.4---
2024-07-17 11:10 amWNW 13.6 15.5 4.9-6.2 SW29.98- 63.5 65.8 59.4---
2024-07-17 11:00 am W 13.6 15.5----29.98+0.00 63.7 65.8 59.7---
2024-07-17 10:50 amWNW 13.6 15.5 4.9 176.3SSW29.98- 63.5 65.8 59.4---
2024-07-17 10:40 amWNW 11.7 15.5----29.98- 63.5 65.8 59.4---
2024-07-17 10:30 am W 11.7 15.5----29.98- 63.5 65.8 59.2---
2024-07-17 10:20 amWNW 11.7 13.6 4.9 176.2 SW29.98- 63.3 65.8 59.0---
2024-07-17 10:10 am W 11.7 13.6 4.9-6.2 SW29.98- 63.3 65.8 59.2---
2024-07-17 10:00 am W 11.7 13.6----29.98+0.03 63.5 66.0 59.4---
2024-07-17 09:50 amWNW 11.7 13.6 4.3 175.8SSW29.98- 63.5 66.0 59.2---
2024-07-17 09:40 am W 11.7 15.5----29.98- 63.5 66.0 59.2---
2024-07-17 09:30 am W 11.7 15.5----29.98- 63.5 66.0 59.2---
2024-07-17 09:20 am W 11.7 13.6 4.9 176.6SSW29.98- 63.5 66.0 59.2---
2024-07-17 09:10 am W 11.7 13.6 4.9-6.6SSW29.98- 63.3 66.0 59.2---
2024-07-17 09:00 amWNW 11.7 15.5----29.98+0.04 63.3 65.8 59.0---
2024-07-17 08:50 amWNW 11.7 15.5 4.9 176.8SSW29.97- 63.5 65.8 59.4---
2024-07-17 08:40 amWNW 9.7 13.6 4.9-6.8SSW29.98- 63.3 65.8 59.0---
2024-07-17 08:30 amWNW 9.7 11.7----29.98- 63.3 65.8 59.0---
2024-07-17 08:20 amWNW 9.7 13.6 5.2 177.0SSW29.97- 63.5 65.8 59.2---
2024-07-17 08:10 amWNW 9.7 13.6 5.2-7.0SSW29.98- 63.3 65.8 59.0---
2024-07-17 08:00 amWNW 11.7 13.6----29.98+0.03 63.3 65.8 59.0---
2024-07-17 07:50 amWNW 11.7 13.6 4.9 176.6SSW29.97- 63.5 65.8 59.4---
2024-07-17 07:40 amWNW 11.7 13.6----29.97- 63.5 65.8 59.2---
2024-07-17 07:30 amWNW 11.7 13.6----29.96- 63.5 65.8 59.4---
2024-07-17 07:20 amWNW 11.7 13.6 4.6 176.0 S29.97- 63.5 65.8 59.2---
2024-07-17 07:10 amWNW 11.7 13.6 4.6-6.0 S29.96- 63.5 65.8 59.2---
2024-07-17 07:00 amWNW 11.7 15.5----29.96+0.02 63.7 65.8 59.4---
2024-07-17 06:50 amWNW 11.7 15.5 4.3 175.7SSW29.96- 63.7 66.0 59.4---
2024-07-17 06:40 amWNW 13.6 15.5----29.95- 63.7 66.0 59.5---
2024-07-17 06:30 amWNW 11.7 15.5----29.95- 63.9 66.2 59.7---
2024-07-17 06:20 amWNW 13.6 15.5 4.9 176.3SSW29.94- 63.7 66.2 59.4---
2024-07-17 06:10 amWNW 13.6 15.5 4.9-6.3SSW29.94- 63.9 66.2 59.5---
2024-07-17 06:00 amWNW 11.7 15.5----29.94+0.01 63.9 66.2 59.5---
2024-07-17 05:50 amWNW 11.7 15.5 4.6 176.1SSW29.94- 63.9 66.2 59.5---
2024-07-17 05:40 amWNW 13.6 15.5----29.94- 63.9 66.4 59.5---
2024-07-17 05:30 amWNW 11.7 15.5----29.94- 63.9 66.4 59.7---
2024-07-17 05:20 amWNW 11.7 13.6 4.3 175.7SSW29.94- 63.9 66.4 59.7---
2024-07-17 05:10 amWNW 11.7 13.6----29.94- 63.9 66.4 59.5---
2024-07-17 05:00 amWNW 11.7 15.5----29.94+0.01 63.9 66.4 59.7---
2024-07-17 04:50 amWNW 11.7 15.5 4.9 176.1 SW29.94- 64.0 66.4 59.9---
2024-07-17 04:40 amWNW 11.7 15.5----29.94- 64.0 66.4 59.9---
2024-07-17 04:30 amWNW 11.7 15.5----29.94- 64.0 66.6 59.9---
2024-07-17 04:20 amWNW 11.7 13.6 5.2 177.0SSW29.94- 64.0 66.6 59.9---
2024-07-17 04:10 amWNW 11.7 13.6----29.93- 64.0 66.6 59.7---
2024-07-17 04:00 amWNW 11.7 13.6----29.93-0.01 64.2 66.6 60.3---
2024-07-17 03:50 amWNW 11.7 13.6 4.6 176.1SSW29.93- 64.2 66.6 60.1---
2024-07-17 03:40 amWNW 11.7 13.6----29.94- 64.2 66.6 60.1---
2024-07-17 03:30 amWNW 11.7 13.6----29.94- 64.2 66.6 60.3---
2024-07-17 03:20 amWNW 9.7 13.6 4.9 176.3 SW29.94- 64.2 66.4 60.1---
2024-07-17 03:10 amWNW 11.7 13.6----29.94- 64.2 66.6 60.1---
2024-07-17 03:00 amWNW 11.7 13.6----29.93-0.01 64.2 66.6 60.1---
2024-07-17 02:50 amWNW 11.7 13.6 4.9 176.6SSW29.93- 64.2 66.6 60.3---
2024-07-17 02:40 amWNW 11.7 13.6 4.9-6.6SSW29.93- 64.2 66.6 60.3---
2024-07-17 02:30 amWNW 11.7 13.6----29.93- 64.2 66.6 60.3---
2024-07-17 02:20 amWNW 11.7 13.6 4.6 175.8SSE29.94- 64.2 66.6 60.3---
2024-07-17 02:10 amWNW 11.7 13.6----29.93- 64.4 66.4 60.4---
2024-07-17 02:00 amWNW 11.7 15.5----29.93+0.00 64.4 66.2 60.3---
2024-07-17 01:50 amWNW 11.7 15.5 4.9 176.0SSW29.93- 64.4 66.0 60.3---
2024-07-17 01:40 amWNW 11.7 15.5----29.93- 64.4 66.0 60.3---
2024-07-17 01:30 amWNW 11.7 15.5----29.93- 64.2 66.0 60.1---
2024-07-17 01:20 amWNW 11.7 15.5 4.3 175.7 SW29.93- 64.4 66.0 60.4---
2024-07-17 01:10 amWNW 11.7 15.5 4.3-5.7 SW29.94- 64.4 65.8 60.1---
2024-07-17 01:00 amWNW 11.7 13.6----29.94+0.00 64.4 65.8 60.3---
2024-07-17 12:50 amWNW 11.7 13.6 4.9 196.0SSW29.94- 64.6 65.8 60.4---
2024-07-17 12:40 amWNW 11.7 15.5----29.94- 64.6 65.8 60.4---
2024-07-17 12:30 amWNW 11.7 13.6----29.95- 64.4 65.8 60.3---
2024-07-17 12:20 amWNW 11.7 15.5 5.2 176.4 S29.95- 64.6 65.8 60.4---
2024-07-17 12:10 amWNW 11.7 13.6 5.2-6.4 S29.95- 64.6 65.8 60.6---
2024-07-17 12:00 amWNW 11.7 13.6----29.95+0.01 64.6 65.8 60.6---
2024-07-16 11:50 pmWNW 11.7 15.5 5.2 196.1SSW29.95- 64.6 65.8 60.6---
2024-07-16 11:40 pmWNW 13.6 15.5 5.2-6.1SSW29.94- 64.6 65.8 60.6---
2024-07-16 11:30 pmWNW 13.6 15.5----29.94- 64.6 65.8 60.6---
2024-07-16 11:20 pmWNW 11.7 15.5 5.2 176.2 SW29.94- 64.8 66.0 60.8---
2024-07-16 11:10 pmWNW 11.7 15.5 5.2-6.2 SW29.94- 64.8 66.0 60.8---
2024-07-16 11:00 pmWNW 13.6 15.5----29.94+0.01 64.8 66.0 60.8---
2024-07-16 10:50 pmWNW 13.6 15.5 5.2 175.7SSW29.94- 64.8 65.8 60.8---
2024-07-16 10:40 pmWNW 11.7 13.6----29.94- 64.8 65.8 60.8---
2024-07-16 10:30 pmWNW 13.6 15.5----29.94- 64.8 65.8 60.8---
2024-07-16 10:20 pmWNW 11.7 15.5 5.2 195.6 S29.94- 64.8 65.8 60.8---
2024-07-16 10:10 pmWNW 13.6 15.5 5.2-5.6 S29.94- 64.8 65.8 60.8---
2024-07-16 10:00 pmWNW 13.6 17.5----29.94+0.02 64.8 65.8 60.8---
2024-07-16 09:50 pmWNW 13.6 15.5 4.9 175.2 W29.94- 64.8 65.8 60.8---
2024-07-16 09:40 pmWNW 13.6 17.5 4.9-5.2 W29.94- 64.8 65.8 60.6---
2024-07-16 09:30 pmWNW 13.6 17.5----29.94- 64.9 65.8 60.8---
2024-07-16 09:20 pmWNW 13.6 17.5 4.9 195.1 NW29.94- 64.9 65.8 61.0---
2024-07-16 09:10 pmWNW 13.6 17.5 4.9-5.1 NW29.93- 64.9 66.0 60.8---
2024-07-16 09:00 pmWNW 13.6 17.5----29.93+0.02 64.9 66.0 61.0---
2024-07-16 08:50 pmWNW 13.6 17.5 5.2 195.6SSE29.93- 64.9 66.2 61.0---
2024-07-16 08:40 pmWNW 13.6 17.5 5.2-5.6SSE29.93- 64.9 66.0 60.8---
2024-07-16 08:30 pmWNW 13.6 17.5----29.93- 65.1 66.0 61.0---
2024-07-16 08:20 pmWNW 15.5 17.5 4.6 195.0WSW29.93- 65.1 66.2 61.0---
2024-07-16 08:10 pmWNW 13.6 17.5----29.93- 65.3 66.2 61.3---
2024-07-16 08:00 pmWNW 15.5 19.4----29.92+0.00 65.1 66.4 60.8---
2024-07-16 07:50 pmWNW 15.5 19.4 4.9 175.3 SW29.92- 65.1 66.4 60.8---
2024-07-16 07:40 pmWNW 13.6 17.5 4.9-5.3 SW29.93- 65.3 66.4 61.0---
2024-07-16 07:30 pmWNW 13.6 17.5----29.93- 65.1 66.4 60.6---
2024-07-16 07:20 pmWNW 13.6 15.5 5.6 175.5 SW29.92- 65.1 66.4 60.6---
2024-07-16 07:10 pmWNW 15.5 17.5 5.6-5.5 SW29.92- 65.1 66.4 60.6---
2024-07-16 07:00 pmWNW 15.5 17.5----29.92-0.01 65.1 66.4 60.6---
2024-07-16 06:50 pmWNW 15.5 19.4 5.2 175.1WSW29.92- 65.1 66.4 60.6---

Detailed Wave Summary
for 46086 as of
(7:10 pm PDT on 07/17/2024)
0210 GMT on 07/18/2024:

These wave data are displayed in rounded times.

     

Click on the graph icon in the table below to see a time series plot of the last five days of that observation.

5-day plot - Significant Wave Height Significant Wave Height (WVHT): 4.9 ft
5-day plot - Swell Height Swell Height (SwH): 4.9 ft
5-day plot - Swell Period Swell Period (SwP): 16.0 sec
5-day plot - Swell Direction Swell Direction (SwD): SW
5-day plot - Wind Wave Height Wind Wave Height (WWH): 1.3 ft
5-day plot - Wind Wave Period Wind Wave Period (WWP): 3.3 sec
5-day plot - Wind Wave Direction Wind Wave Direction (WWD):WNW
5-day plot - Wave Steepness Wave Steepness (STEEPNESS): SWELL
5-day plot - Average Wave Period Average Wave Period (APD): 6.8 sec
Previous observations
TIME
(PDT)
5-day plot - Wave Height
WVHT
ft
5-day plot - Swell Height
SwH
ft
5-day plot - Swell Period
SwP
sec
5-day plot - Swell Direction
SwD
 
5-day plot - Wind Wave Height
WWH
ft
5-day plot - Wind Wave Period
WWP
sec
5-day plot - Wind Wave Direction
WWD
 
5-day plot - Wave Steepness
STEEPNESS
 
5-day plot - Average Wave Period
APD
sec
2024-07-17 06:40 pm 4.9 4.6 17.4SSW 2.3 5.0 WNW SWELL 6.7
2024-07-17 06:10 pm 4.6 3.9 16.0SSW 2.3 4.3 WNW SWELL 6.2
2024-07-17 05:40 pm 4.3 3.9 17.4SSW 2.0 4.5 WNW SWELL 5.9
2024-07-17 05:10 pm 4.3 3.6 17.4WSW 2.3 5.0 WNW SWELL 5.8
2024-07-17 04:40 pm 4.6 3.9 17.4 SW 2.6 5.3 WNW SWELL 6.2
2024-07-17 04:10 pm 4.9 4.3 17.4SSW 2.3 4.5 WNW SWELL 6.4
2024-07-17 03:40 pm 5.2 4.9 17.4 SW 2.6 3.7 WNW SWELL 6.5
2024-07-17 03:10 pm 4.6 3.6 16.0SSW 3.0 5.3 WNW SWELL 5.7
2024-07-17 02:40 pm 4.9 3.6 17.4 S 3.3 5.9 WNW SWELL 5.5
2024-07-17 02:10 pm 4.6 3.0 17.4SSW 3.6 6.2 WNW AVERAGE 5.7
2024-07-17 01:40 pm 5.2 3.9 17.4SSW 3.3 5.9 WNW SWELL 6.4
2024-07-17 01:10 pm 4.6 3.6 17.4 SW 2.6 5.9 WNW SWELL 6.3
2024-07-17 12:40 pm 4.6 3.6 17.4 SW 2.6 5.9 WNW SWELL 6.4
2024-07-17 12:10 pm 4.9 3.9 17.4 SW 2.6 6.2 WNW SWELL 6.5
2024-07-17 11:40 am 5.2 4.6 17.4SSW 2.6 5.9 WNW SWELL 6.8
2024-07-17 11:10 am 4.9 3.9 17.4 SW 3.0 6.2 WNW SWELL 6.2
2024-07-17 10:40 am 4.9 3.9 17.4SSW 2.6 4.8 WNW SWELL 6.3
2024-07-17 10:10 am 4.9 4.3 17.4 SW 2.3 4.8 W SWELL 6.2
2024-07-17 09:40 am 4.3 3.6 17.4SSW 2.3 5.0 WNW SWELL 5.8
2024-07-17 09:10 am 4.9 4.3 17.4SSW 2.3 5.0 WNW SWELL 6.6
2024-07-17 08:40 am 4.9 4.6 17.4SSW 2.0 4.8 WNW SWELL 6.8
2024-07-17 08:10 am 5.2 4.9 17.4SSW 2.3 4.3 WNW SWELL 7.0
2024-07-17 07:40 am 4.9 4.3 17.4SSW 2.3 4.5 W SWELL 6.6
2024-07-17 07:10 am 4.6 3.6 17.4 S 2.6 5.6 WNW SWELL 6.0
2024-07-17 06:40 am 4.3 3.0 17.4SSW 3.3 6.2 WNW AVERAGE 5.7
2024-07-17 06:10 am 4.9 3.6 17.4SSW 3.3 5.9 WNW SWELL 6.3
2024-07-17 05:40 am 4.6 3.3 17.4SSW 3.3 5.9 WNW SWELL 6.1
2024-07-17 05:10 am 4.3 3.3 17.4SSW 2.6 4.8 NW SWELL 5.7
2024-07-17 04:40 am 4.9 3.9 17.4 SW 3.0 4.3 WNW SWELL 6.1
2024-07-17 04:10 am 5.2 4.6 17.4SSW 2.6 4.8 WNW SWELL 7.0
2024-07-17 03:40 am 4.6 3.9 17.4SSW 2.6 5.3 WNW SWELL 6.1
2024-07-17 03:10 am 4.9 4.3 17.4 SW 2.3 4.8 WNW SWELL 6.3
2024-07-17 02:40 am 4.9 4.3 17.4SSW 2.6 5.0 WNW SWELL 6.6
2024-07-17 02:10 am 4.6 3.6 17.4SSE 2.6 4.2 WNW SWELL 5.8
2024-07-17 01:40 am 4.9 3.6 17.4SSW 3.0 4.8 NW SWELL 6.0
2024-07-17 01:10 am 4.3 3.3 17.4 SW 3.0 5.9 NW SWELL 5.7
2024-07-17 12:40 am 4.9 3.9 19.0SSW 3.3 5.9 NW SWELL 6.0
2024-07-17 12:10 am 5.2 4.6 17.4 S 2.6 5.0 NW SWELL 6.4
2024-07-16 11:40 pm 5.2 3.9 19.0SSW 3.3 5.6 NW SWELL 6.1
2024-07-16 11:10 pm 5.2 4.3 17.4 SW 3.3 5.9 NW SWELL 6.2
2024-07-16 10:40 pm 5.2 3.6 17.4SSW 3.6 5.9 NW SWELL 5.7
2024-07-16 10:10 pm 5.2 3.6 19.0 S 3.6 5.3 NW SWELL 5.6
2024-07-16 09:40 pm 4.9 3.0 17.4 W 3.9 5.0 NW AVERAGE 5.2
2024-07-16 09:10 pm 4.9 2.6 19.0 NW 3.9 5.9 WNW AVERAGE 5.1
2024-07-16 08:40 pm 5.2 3.6 19.0SSE 3.9 5.6 WNW AVERAGE 5.6
2024-07-16 08:10 pm 4.6 2.3 19.0WSW 3.9 5.9 WNW AVERAGE 5.0
2024-07-16 07:40 pm 4.9 3.0 17.4 SW 3.9 5.6 WNW AVERAGE 5.3
2024-07-16 07:10 pm 5.6 3.3 17.4 SW 4.3 5.3 WNW AVERAGE 5.5

Plot of wave energy versus frequency (and period)